Weather in Baykovo

Russia / Nizhny Novgorod Oblast'     54°46′36″N   44°51′09″E
temp.,
°C
wind,
m/s
gust,
m/s
humid.,
%
clouds,
%
prec.,
mm/h
press.,
hPa
HPBL,
m
7 may, fri
fri700:00+11s41382100 0.0 1012281
03:00+11s51374100 0.0 1011376
06:00+11s61375100 0.0 1010327
09:00+13s71369100 0.0 1010601
12:00+14ssw71069100 0.3 10101002
15:00+7nw7990100 1.4 1013477
18:00+8nw2483100 0.3 1015474
21:00+6s1189100 0.3 101710
8 may, sat
sat800:00+5s2292100 0.0 101712
03:00+4sse11910 0.0 101810
06:00+6ese238632 0.0 1018105
09:00+11ese46627 0.0 1017761
12:00+14se5658100 0.0 10141221
15:00+15sse686346 0.0 10121407
18:00+14sse5971100 0.0 1011378
21:00+11sse41180100 0.0 1010246
9 may, sun
sun900:00+12sse51268100 0.0 1008352
03:00+11s71574100 0.3 1008591
06:00+11s61285100 0.3 1009602
09:00+11wsw5781100 0.3 1011572
12:00+10wsw6772100 0.0 1013739
15:00+7w3690100 1.6 1015399
18:00+8nw2596100 3.1 1016374
21:00+7nnw5993100 4.5 1018431
10 may, mon
mon1000:00+6nnw4893100 0.1 1020421
03:00+6n51093100 0.1 1022468
06:00+6n5991100 0.0 1024453
09:00+9n6878100 0.0 1025765
12:00+12nne776998 0.0 10261035
15:00+13nne68647 0.0 10261108
18:00+12ne58736 0.0 1027801
21:00+7ne38901 0.0 1029166
11 may, tue
tue1100:00+6nne310910 0.0 1029205
03:00+5ne4138818 0.0 1029280
06:00+7ne4128198 0.0 1030447
09:00+12ene710596 0.0 1030865
12:00+15ne685029 0.0 10291156
15:00+16ne67480 0.0 10281338
18:00+14ne48630 0.0 1029329
21:00+10ne36764 0.0 102982